Location: Grasslands National Park East Block
(49.0708°N, 106.5295°W)
Time: 16:31:03
(UTC-06:00)

Max Valier Satellite - Pass Details

Date: 30 September 2019
Orbit: 490 x 508 km, 97.3° (Epoch: 16 October)

Event Time Altitude Azimuth Distance (km) Brightness Sun altitude
Exits shadow 21:14:12 17° 15° (NNE) 1,337 ? -24.3°
Drops below altitude 10° 21:15:18 10° 5° (N) 1,733 ? -24.4°
Sets 21:17:32 0° 356° (N) 2,621 ? -24.8°
